AO-07 1 07530U 74089B 16007.84858016 -.00000042 00000-0 13329-4 0 9996 2 07530 101.5518 342.6864 0011698 265.2558 124.0397 12.53618926882905 FO-29 1 24278U 96046B 16007.45100777 -.00000052 00000-0 -13715-4 0 9993 2 24278 98.5725 313.9043 0349343 261.4491 94.6924 13.53062882957640 SO-33 1 25509U 98061B 16007.75927419 .00000222 00000-0 33366-4 0 9994 2 25509 31.4300 171.4400 0347271 67.1423 296.5481 14.30115901898722 RS-22 1 27939U 03042A 16007.88431928 .00000425 00000-0 85218-4 0 9995 2 27939 97.8626 166.0039 0014335 96.6490 263.6362 14.66282558656186 HO-68 1 36122U 09072B 16007.54666933 -.00000059 00000-0 -43517-4 0 9998 2 36122 100.1667 49.8026 0007549 13.2539 346.8774 13.16331804291342 AO-73 1 39444U 13066AE 16007.74533663 .00000931 00000-0 12400-3 0 9994 2 39444 97.7050 67.7686 0059177 187.0793 172.9591 14.80771028113689 EO-79 1 40025U 14033R 16007.79114296 .00000881 00000-0 10277-3 0 9992 2 40025 97.9396 273.2115 0011530 230.5999 129.4197 14.87694784 84209 XW-2A 1 40903U 15049E 16007.85509409 .00004940 00000-0 14870-3 0 9999 2 40903 97.4521 21.1807 0016775 358.5260 124.6404 15.34705214 16796 XW-2C 1 40906U 15049H 16007.84995579 .00002187 00000-0 12789-3 0 9996 2 40906 97.4552 18.4795 0014424 233.1000 248.2658 15.12833089 16609 LILACSAT-2 1 40908U 15049K 16007.89444597 .00001779 00000-0 10686-3 0 9992 2 40908 97.4613 18.5095 0015331 224.9540 252.2963 15.12078788 16609 XW-2E 1 40909U 15049L 16007.82150611 .00003665 00000-0 20845-3 0 9991 2 40909 97.4554 18.5184 0013595 236.2277 247.7559 15.13415862 16605 UO-11 1 14781U 84021B 16007.81033975 .00000318 00000-0 45794-4 0 9991 2 14781 97.7742 64.5531 0009823 118.5694 241.6509 14.82636278712340 AO-16 1 20439U 90005D 16007.77808737 .00000049 00000-0 34004-4 0 9991 2 20439 98.5606 306.1492 0009720 277.6783 112.0682 14.32601177356036 LO-19 1 20442U 90005G 16007.82076555 .00000030 00000-0 26857-4 0 9993 2 20442 98.5310 305.1236 0010640 263.2346 96.7628 14.32789465356244 AO-27 1 22825U 93061C 16007.44858722 .00000035 00000-0 30859-4 0 9999 2 22825 98.7375 322.8955 0009488 72.8968 287.3252 14.29930164162123 IO-26 1 22826U 93061D 16007.45959572 .00000038 00000-0 31916-4 0 9994 2 22826 98.7319 323.0492 0009955 65.0835 295.1380 14.30251910162280 GO-32 1 25397U 98043D 16006.92299534 .00000011 00000-0 23460-4 0 9997 2 25397 098.5479 316.2480 0002416 090.8959 269.2497 14.23577718908558 NO-44 1 26931U 01043C 16007.18956305 .00000014 00000-0 37421-4 0 9996 2 26931 67.0515 10.8393 0007381 275.0518 84.9740 14.30375885744975 SO-50 1 27607U 02058C 16007.20154700 .00000245 00000-0 55377-4 0 9992 2 27607 64.5560 295.7264 0080454 249.4798 109.7657 14.75012237701374 CO-55 1 27844U 03031E 16007.89090885 .00000145 00000-0 85585-4 0 9998 2 27844 98.6941 18.4889 0010707 71.5158 288.7182 14.21898422649527 CO-57 1 27848U 03031J 16007.82157257 .00000114 00000-0 71880-4 0 9991 2 27848 98.7039 18.4330 0010656 78.9400 281.2975 14.21531768649418 AO-51 1 28375U 04025K 16007.07744686 .00000078 00000-0 35746-4 0 9996 2 28375 98.3145 306.8777 0083852 74.1061 286.9350 14.41738100605878 CP3 1 31129U 07012N 16007.84831687 .00000584 00000-0 13440-3 0 9997 2 31129 98.0097 330.0793 0097074 36.6680 324.1110 14.56113304462891 CO-65 1 32785U 08021C 16007.78782601 .00000701 00000-0 83321-4 0 9998 2 32785 97.6237 48.5605 0014738 109.1190 251.1624 14.87319757416636 PRISM 1 33493U 09002B 16007.80038576 .00002114 00000-0 20217-3 0 9997 2 33493 98.2327 220.1542 0016508 21.1603 339.0293 14.94323518377123 SOHLA-1 1 33496U 09002E 16007.44542024 .00000189 00000-0 38800-4 0 9996 2 33496 98.2372 142.4288 0005345 227.7596 172.7772 14.71510789373214 TISAT-1 1 36799U 10035E 16007.77081426 .00001420 00000-0 15567-3 0 9996 2 36799 98.0223 115.7326 0011601 254.2087 105.7850 14.89334938297390 STUDSAT 1 36801U 10035G 16007.41453388 .00017376 00000-0 82332-3 0 9992 2 36801 98.0779 144.4901 0005834 161.9080 198.2361 15.19378873298908 ALMASAT-1 1 38078U 12006B 16006.70469480 .00024596 35279-5 37324-3 0 9995 2 38078 069.4531 082.6389 0427927 332.7983 025.1317 14.92055817205253 CUBEBUG-1 1 39153U 13018D 16007.81406818 .00000645 00000-0 92930-4 0 9996 2 39153 98.0069 96.5350 0016147 314.8129 45.1769 14.79651725145739 ESTCUBE-1 1 39161U 13021C 16007.83401911 .00000572 00000-0 10020-3 0 9998 2 39161 98.0603 93.8823 0010371 29.8602 330.3178 14.71488860143336 DUCHIFAT-1 1 40021U 14033M 16007.67841420 .00001399 00000-0 15519-3 0 9990 2 40021 97.9419 273.8097 0012135 230.8650 129.1489 14.88845749 84228 NANOSATCBR1 1 40024U 14033Q 16007.66536506 .00001163 00000-0 13174-3 0 9992 2 40024 97.9398 273.3861 0011346 230.0891 129.9328 14.88319145 84207 DTUSAT-2 1 40030U 14033W 16007.66561323 .00000919 00000-0 10791-3 0 9994 2 40030 97.9379 272.6698 0011063 223.7677 136.2663 14.87332197 84169 ANTELSAT 1 40034U 14033AA 16007.65688294 .00000773 00000-0 12458-3 0 9994 2 40034 97.9215 259.9694 0058944 183.4550 176.6237 14.73154862 83392 MET-2/21 1 22782U 93055A 16007.34690957 -.00000009 00000-0 -21680-4 0 9992 2 22782 82.5491 81.6748 0023715 107.9909 321.3185 13.83783369128835 OKEAN-4 1 23317U 94066A 16007.21862492 .00000500 00000-0 52947-4 0 9995 2 23317 82.5380 253.7295 0020602 17.5119 102.1827 14.87000041147616 NOAA-14 1 23455U 94089A 16007.33234220 .00000009 00000-0 27445-4 0 9997 2 23455 98.7374 89.4403 0008901 213.2994 196.9374 14.14064853 84383 NOAA-15 1 25338U 98030A 16007.45776563 .00000078 00000-0 51651-4 0 9995 2 25338 98.7800 11.3122 0009728 298.5863 61.4337 14.25692827917942 RESURS 1 25394U 98043A 16007.48373845 -.00000021 00000-0 91526-5 0 9995 2 25394 98.4946 320.4817 0002280 59.9462 47.4823 14.24466557909366 FENGYUN1 1 25730U 99025A 16007.45664367 .00001479 00000-0 80314-3 0 9997 2 25730 98.9626 337.4849 0019299 280.7558 191.4613 14.13837553857917 OKEAN-0 1 25860U 99039A 16007.49495498 .00000295 00000-0 50084-4 0 9994 2 25860 98.1228 341.2277 0001708 72.9508 37.0588 14.76251792886126 NOAA-16 1 26536U 00055A 16007.43871927 .00000012 00000-0 30539-4 0 9994 2 26536 98.9187 77.9704 0010707 19.8939 340.2649 14.13131388788503 NOAA-17 1 27453U 02032A 16007.49073903 .00000017 00000-0 24960-4 0 9990 2 27453 98.3633 348.6055 0010806 307.3242 52.6953 14.24917270703751 NOAA-18 1 28654U 05018A 16007.53199494 .00000022 00000-0 37533-4 0 9996 2 28654 99.1948 10.2809 0015153 107.1514 253.1317 14.12259924547918 NOAA-19 1 33591U 09005A 16007.46042087 .00000120 00000-0 90442-4 0 9996 2 33591 99.0185 323.1039 0013411 318.0224 41.9918 14.12025380356312 HUBBLE 1 20580U 90037B 16007.12541095 .00001138 00000-0 60732-4 0 9990 2 20580 28.4694 248.7135 0002678 267.3758 224.7503 15.08048457210627 ISS 1 25544U 98067A 16007.86270074 .00006547 00000-0 10167-3 0 9998 2 25544 51.6423 142.5827 0008615 13.1003 123.3584 15.55293229979880 CO-58 1 28895U 05043F 16007.76997911 .00000417 00000-0 89781-4 0 9996 2 28895 97.8212 189.9223 0017233 14.0213 346.1465 14.63050160543506 FALCON 1 30776U 07006E 16007.78494392 .00007011 00000-0 25653-3 0 9999 2 30776 35.4265 155.8301 0001178 286.7847 73.2747 15.27422376487572 MAST 1 31126U 07012K 16006.86376497 .00000421 00000-0 10002-3 0 9999 2 31126 97.9900 330.9812 0091264 21.4891 339.0100 14.56258883463124 CAPE1 1 31130U 07012P 16007.88899814 .00000524 00000-0 12244-3 0 9994 2 31130 98.0116 329.5288 0097824 38.8084 322.0087 14.55767755462661 COMPASS 1 32787U 08021E 16007.34088248 .00001554 00000-0 16021-3 0 9997 2 32787 97.6256 53.5375 0014364 94.6960 265.5900 14.91545002416935 AAUSAT2 1 32788U 08021F 16007.18606179 .00001324 00000-0 13353-3 0 9999 2 32788 97.6265 55.2604 0013771 91.2354 269.0443 14.92688296417027 DO-64 1 32789U 08021G 16007.38277665 .00004963 00000-0 38318-3 0 9996 2 32789 97.6284 69.3857 0012931 87.7085 272.5620 15.01937783417703 CO-66 1 32791U 08021J 16007.16767156 .00000945 00000-0 10485-3 0 9995 2 32791 97.6255 50.5796 0015199 102.7995 257.4923 14.89408404416676 RS-30 1 32953U 08025A 16007.74972758 .00000010 00000-0 -13620-7 0 9991 2 32953 82.5016 207.0269 0019079 355.9022 4.1892 12.43066339346020 METEOR-M 1 35865U 09049A 16007.77379394 -.00000024 00000-0 79009-5 0 9999 2 35865 98.4765 45.5167 0001602 219.7980 270.8431 14.22055144327286 RS-38 1 35869U 09049E 16007.81387605 .00000005 00000-0 21105-4 0 9993 2 35869 98.4678 45.0833 0003618 233.0408 127.0420 14.22324496327348 JUGNU 1 37839U 11058B 16007.23870457 .00000333 00000-0 35850-4 0 9999 2 37839 19.9623 45.4464 0019127 134.6003 306.5486 14.12514657219107 SRMSAT 1 37841U 11058D 16007.55274769 .00000319 00000-0 30587-4 0 9997 2 37841 19.9724 74.4145 0012057 57.2522 82.5343 14.10518531218836 RAX-2 1 37853U 11061D 16007.83897261 .00002802 00000-0 17111-3 0 9999 2 37853 101.7129 324.7721 0188491 197.6026 161.8592 14.98405146227721 AUBIESAT 1 37854U 11061E 16007.84541919 .00003611 00000-0 21226-3 0 9998 2 37854 101.6976 329.2247 0177716 189.4790 170.3051 15.00661870227883 HRBE 1 37855U 11061F 16007.81430351 .00003205 00000-0 18509-3 0 9992 2 37855 101.7171 327.3676 0191901 192.7205 166.9125 14.99597135227799 HORYU-2 1 38340U 12025D 16007.16784347 .00000682 00000-0 11002-3 0 9995 2 38340 98.3385 347.7050 0012044 161.7777 198.3865 14.74766238195596 RS-40 1 38735U 12041C 16007.86802983 .00000040 00000-0 21992-3 0 9992 2 38735 82.4773 292.3481 0017774 92.6022 267.7092 12.42570341156335 PROITERES 1 38756U 12047B 16007.73448704 .00000395 00000-0 65083-4 0 9997 2 38756 98.2272 115.6082 0012540 10.3990 349.7483 14.76060721179175 BEESAT-3 1 39134U 13015E 16007.42420849 .00005228 00000-0 29196-3 0 9994 2 39134 64.8719 122.9927 0015845 233.4443 126.5224 15.14500399149604 BEESAT-2 1 39136U 13015G 16007.12994662 .00003843 00000-0 23001-3 0 9992 2 39136 64.8726 128.1871 0016574 230.4948 129.4711 15.12452821149480 ZACUBE-1 1 39417U 13066B 16007.72483635 .00000752 00000-0 10293-3 0 9994 2 39417 97.7042 67.3171 0059807 188.5518 171.4681 14.80153247114880 TRITON-1 1 39427U 13066M 16007.65323359 .00000638 00000-0 11170-3 0 9991 2 39427 97.6888 51.1047 0114082 233.5501 125.5147 14.66993807113830 DELFIN3XT 1 39428U 13066N 16007.68159951 .00001072 00000-0 18377-3 0 9999 2 39428 97.6909 49.1233 0122092 239.6119 119.2972 14.65967370113696 GOMX-1 1 39430U 13066Q 16007.55419425 .00000757 00000-0 14874-3 0 9990 2 39430 97.6843 40.6836 0151626 265.6697 92.7156 14.58400681113166 LO-74 1 39440U 13066AA 16006.88917845 .00000696 00000-0 10570-3 0 9996 2 39440 097.6979 060.1105 0080924 208.2835 151.3970 14.74933257113155 PUCPSAT-1 1 39442U 13066AC 16007.18391091 .00001140 00000-0 12491-3 0 9990 2 39442 97.7173 77.3634 0033062 166.6555 193.5545 14.89294405114224 SPROUT 1 39770U 14029E 16007.05454152 .00002029 00000-0 24573-3 0 9999 2 39770 97.8717 106.2210 0008497 251.6504 108.3750 14.84714581 87877 POPSAT-HIP1 1 40028U 14033U 16007.84689483 .00001302 00000-0 14933-3 0 9998 2 40028 97.9416 273.3928 0012845 229.6896 130.3200 14.87581019 84205 EO-80 1 40032U 14033Y 16007.68433903 .00000917 00000-0 10791-3 0 9998 2 40032 97.9387 272.6992 0011020 223.9025 136.1316 14.87262158 84162 VELOX-1 1 40057U 14034E 16007.85044361 .00001068 00000-0 16134-3 0 9996 2 40057 98.2031 94.2260 0010323 308.5818 51.4429 14.76388143 82073 DAURIA DX 1 1 40071U 14037C 16007.84063643 .00000484 00000-0 70444-4 0 9994 2 40071 98.3402 92.5055 0007726 309.9720 50.0800 14.80663612 81074 UKUBE-1 1 40074U 14037F 16007.87965146 .00001063 00000-0 13884-3 0 9997 2 40074 98.3431 94.0328 0004101 320.0571 40.0317 14.82752458 81162 HODOYOSHI-1 1 40299U 14070B 16007.88520244 .00002282 00000-0 10711-3 0 9990 2 40299 97.4424 91.8662 0014816 131.4609 320.2590 15.20576833 64913 CHUBUSAT-1 1 40300U 14070C 16007.86893127 .00002620 00000-0 12770-3 0 9997 2 40300 97.4394 90.5314 0022390 138.2647 314.5364 15.19007302 64839 QSAT-EOS 1 40301U 14070D 16007.86301491 .00004891 00000-0 23061-3 0 9993 2 40301 97.4345 89.7411 0030939 139.7825 356.1203 15.19522827 64799 TSUBAME 1 40302U 14070E 16007.87199374 .00003069 00000-0 16703-3 0 9991 2 40302 97.4312 87.1620 0042343 148.2777 303.6855 15.14415401 64638 FIREBIRD FU3 1 40377U 15003B 16007.81810948 .00005879 00000-0 27919-3 0 9993 2 40377 99.0933 84.3135 0149082 302.1280 56.5550 15.10420623 51400 FIREBIRD FU4 1 40378U 15003C 16007.74909049 .00005665 00000-0 26894-3 0 9991 2 40378 99.0934 84.2408 0149359 302.3122 56.3711 15.10422443 51395 GRIFEX 1 40379U 15003D 16007.78413448 .00003590 00000-0 17769-3 0 9995 2 40379 99.0944 83.8738 0151895 304.5419 54.1545 15.09138099 51377 LAMBDA-SAT 1 40458U 98067GB 15136.30676273 .20783109 12527-4 14817-2 0 9995 2 40458 051.6075 233.7697 0010355 318.5347 043.1720 16.39926603 21161 NO-84 1 40654U 15025X 16007.39597519 .00011620 00000-0 27025-3 0 02367 2 40654 054.9940 050.4981 0227105 032.1120 329.3557 15.20292958035167 NO-83 1 40655U 15025X 16007.39564159 .00015955 00000-0 35536-3 0 02431 2 40655 054.9854 048.5074 0215508 032.8903 328.5363 15.23017673035194 DEORBITSAIL 1 40719U 15032E 16007.19814917 .00001180 00000-0 18210-3 0 9991 2 40719 98.0353 260.1059 0017878 39.9658 320.2863 14.75133200 26609 NUDT-PHONESAT 1 40900U 15049B 16007.73116586 .00005631 00000-0 30512-3 0 9992 2 40900 97.4474 18.5141 0013981 256.8692 190.7018 15.14917256 16611 XW-2D 1 40907U 15049J 16007.85283715 .00002273 00000-0 13285-3 0 9998 2 40907 97.4516 18.4272 0013813 231.4235 249.6042 15.12814419 16600 XW-2F 1 40910U 15049M 16007.85407471 .00003184 00000-0 18386-3 0 9998 2 40910 97.4549 18.4723 0014997 230.3492 250.8711 15.12953337 16495 XW-2B 1 40911U 15049N 16007.85162188 .00002261 00000-0 13215-3 0 9993 2 40911 97.4563 18.4992 0013756 230.7297 250.8422 15.12820055 16500 DCBB 1 40912U 15049P 16007.85790660 .00003410 00000-0 18684-3 0 9998 2 40912 97.4553 18.7781 0015505 227.2156 253.5403 15.14778922 16526 TW-1C 1 40926U 15051B 16007.89824163 .00010148 00000-0 32335-3 0 9991 2 40926 97.2974 46.7966 0014156 268.4243 218.2275 15.32640528 16027 TW-1A 1 40928U 15051D 16007.85654639 .00006094 00000-0 20278-3 0 9996 2 40928 97.2911 46.5978 0013290 286.0688 159.5626 15.31429679 16015 IO-86 1 40931U 15052B 16007.09185708 .00000848 00000-0 29261-4 0 9996 2 40931 6.0039 30.7097 0014289 344.5934 15.3882 14.76405786 14931 AAUSat-5 1 40948U 98067GZ 16007.72546201 .00108629 00000-0 85397-3 0 9997 2 40948 51.6362 138.1852 0007601 320.3704 39.6737 15.70627828 14715 GomX-3 1 40949U 98067HA 16007.73591658 .00024769 00000-0 26239-3 0 9997 2 40949 51.6396 139.7776 0006374 334.3220 25.7458 15.63952732 14699 LQSat 1 40958U 15057A 16007.82440665 .00000240 00000-0 45463-4 0 9995 2 40958 98.0321 84.7228 0017468 314.0625 45.9132 14.72785841 13633 AO-85 1 40967U 15058D 16007.33446309 .00002427 00000-0 26410-3 0 00948 2 40967 064.7836 016.5442 0218479 255.7594 101.9163 14.74640717013266 ATHENOXAT-1 1 41168U 15077C 16007.59601521 .00005357 00000-0 29104-3 0 9992 2 41168 14.9855 49.3282 0011962 291.3880 144.6477 15.08660108 3306 /EX